Starlink 32571

operational
NORAD ID: 62055 Int'l Des: 2024-216 Owner: SPXS Country: US Constellation: starlink
LEOCIRCULAR

About Starlink 32571

Description loading...

Live Position

Loading 3D Globe...

Upcoming Passes

Altitude History

Altitude vs Time

uPlot chart will show altitude changes over time

Two-Line Element Set

1 62055U 24216Z 25350.39963523 .00016724 00000-0 61545-3 0 9992
2 62055 43.0011 6.1709 0001131 281.5593 78.5132 15.27603804 61246
Epoch: Dec 16, 2025 • Age: 24 hours

Current Status

Altitude 485.6 km
Velocity 7.63 km/s
Sub-Earth Point 37.32°N, 104.78°W
Launch Date Nov 21, 2024
Age 1 years
Type internet

Technical Details

Classification Payload
Mass 730.00 kg
Dry Mass 700.00 kg
Total Mass 730.00 kg
Length 0.30 m
Diameter 4.10 m
Span 29.00 m
Shape Box + pan
Manufacturer SPXS
Bus Type Starlink V2M
Phase Status In Orbit
Owner/State SPXS/US

Large Constellations

Loading constellations...